This is the latest recevied weather packets stored in our database for station/object N1ICS-1. If no packets are shown the sender has not sent any weather packets the latest 10 day(s).
| Time | Temp. | Humidity | Pressure | Rain* | Wind** | Luminosity | Snow |
|---|---|---|---|---|---|---|---|
| 1777834802 | 16.11° C | 43% | 1015.6 hPa | 0 mm | - | 598 W/m² | - |
| 1777834502 | 16.11° C | 43% | 1015.6 hPa | 0 mm | - | 683 W/m² | - |
| 1777834201 | 16.67° C | 41% | 1015.9 hPa | 0 mm | - | 765 W/m² | - |
| 1777833902 | 16.67° C | 45% | 1015.8 hPa | 0 mm | - | 755 W/m² | - |
| 1777833602 | 16.11° C | 43% | 1016 hPa | 0 mm | - | 769 W/m² | - |
| 1777833301 | 16.67° C | 41% | 1016.2 hPa | 0 mm | - | 699 W/m² | - |
| 1777833002 | 16.11° C | 42% | 1015.9 hPa | 0 mm | - | 758 W/m² | - |
| 1777832702 | 16.11° C | 41% | 1016.2 hPa | 0 mm | - | 727 W/m² | - |
| 1777832402 | 16.67° C | 43% | 1016.2 hPa | 0 mm | - | 849 W/m² | - |
| 1777832102 | 16.11° C | 41% | 1016.3 hPa | 0 mm | - | 783 W/m² | - |
| 1777831802 | 16.11° C | 40% | 1016.2 hPa | 0 mm | - | 825 W/m² | - |
| 1777831502 | 16.11° C | 39% | 1016.2 hPa | 0 mm | - | 890 W/m² | - |
| 1777831202 | 16.11° C | 42% | 1016.3 hPa | 0 mm | - | 823 W/m² | - |
| 1777830901 | 16.11° C | 43% | 1016.3 hPa | 0 mm | - | 847 W/m² | - |
| 1777830602 | 16.11° C | 43% | 1016.5 hPa | 0 mm | - | 891 W/m² | - |
| 1777830302 | 16.11° C | 42% | 1016.6 hPa | 0 mm | - | 979 W/m² | - |
| 1777830002 | 16.11° C | 40% | 1016.7 hPa | 0 mm | - | 912 W/m² | - |
| 1777829702 | 15.56° C | 42% | 1016.5 hPa | 0 mm | - | 908 W/m² | - |
| 1777829401 | 16.11° C | 44% | 1016.9 hPa | 0 mm | - | 987 W/m² | - |
| 1777829101 | 16.11° C | 42% | 1016.7 hPa | 0 mm | - | 1007 W/m² | - |
| 1777828802 | 15.56° C | 42% | 1016.8 hPa | 0 mm | - | 887 W/m² | - |
| 1777828502 | 16.11° C | 45% | 1016.9 hPa | 0 mm | - | 861 W/m² | - |
| 1777828202 | 15.56° C | 45% | 1017 hPa | 0 mm | - | 827 W/m² | - |
| 1777827902 | 15.56° C | 44% | 1017.2 hPa | 0 mm | - | 748 W/m² | - |
| 1777827603 | 15.56° C | 45% | 1017.1 hPa | 0 mm | - | 878 W/m² | - |
* Rain latest hour (hover to see other rain measurements)
** Current wind speed in m/s (hover to see current wind gust speed)